Location: Tel Aviv
(32.0670°N, 34.7670°E)
Time: 21:05:58
(UTC+03:00)

Transit 2A - Pass Details

Date: 05 June 2024
Orbit: 593 x 959 km, 66.7° (Epoch: 14 June)

Event Time Altitude Azimuth Distance (km) Brightness Sun altitude
Rises 03:23:50 0° 357° (N) 3,498 10.1 -22.7°
Reaches altitude 10° 03:28:47 10° 33° (NNE) 2,630 9.9 -22.0°
Maximum altitude 03:30:19 11° 47° (NE) 2,581 9.8 -21.8°
Drops below altitude 10° 03:31:52 10° 62° (ENE) 2,660 9.8 -21.6°
Sets 03:36:58 0° 97° (E) 3,630 10.0 -20.8°
